Temp
-9 -10 -11 -11 -11 -11 -11 -11 -11 -11 -11 -11 -12 -11 -11 -10 -10 -10 -10 -9 -9 -10 -10 -10 -10 -10 -9 -9 -8 -8 -8 -8 -8 -8 -8 -8 -8 -9 -9 -9 -9 -9 -9
-11 -12 -12 -12 -12 -12 -12 -12 -11 -11 -13 -13 -13 -13 -12 -11 -11 -10 -10 -10 -10 -11 -11 -10 -10 -10 -9 -9 -9 -8 -9 -9 -9 -9 -9 -9 -9 -9 -9 -9 -9 -9 -9
-12 -12 -12 -12 -12 -13 -12 -13 -12 -13 -13 -14 -13 -13 -13 -12 -12 -12 -11 -11 -11 -11 -11 -11 -11 -10 -10 -10 -10 -9 -9 -9 -9 -9 -9 -9 -9 -9 -9 -9 -10 -10 -10
-11 -12 -12 -12 -12 -12 -13 -13 -13 -13 -13 -13 -14 -14 -14 -14 -13 -12 -12 -11 -11 -11 -11 -11 -11 -11 -12 -10 -10 -10 -10 -10 -9 -10 -10 -10 -10 -10 -10 -10 -10 -10 -11
-11 -11 -11 -12 -12 -12 -13 -13 -13 -13 -13 -13 -14 -14 -14 -15 -14 -13 -12 -12 -12 -12 -12 -11 -12 -11 -12 -12 -11 -10 -10 -10 -10 -10 -10 -10 -11 -10 -10 -11 -11 -11 -11
-11 -11 -11 -12 -12 -12 -12 -13 -13 -13 -13 -13 -15 -14 -14 -13 -13 -12 -12 -12 -12 -12 -12 -12 -11 -12 -11 -11 -11 -10 -10 -10 -10 -11 -11 -11 -11 -11 -11 -11 -11 -11 -11
-11 -11 -12 -12 -12 -12 -12 -13 -13 -13 -13 -13 -13 -12 -12 -12 -13 -13 -12 -12 -12 -12 -12 -12 -12 -12 -11 -11 -11 -11 -11 -11 -11 -11 -11 -11 -11 -11 -11 -11 -11 -11 -11
-12 -11 -12 -12 -12 -12 -13 -13 -13 -13 -13 -13 -12 -11 -11 -11 -12 -13 -13 -13 -12 -12 -12 -12 -12 -12 -12 -11 -11 -11 -12 -11 -11 -11 -11 -11 -11 -11 -11 -11 -11 -11 -11
-12 -12 -12 -12 -12 -12 -13 -13 -13 -13 -13 -13 -13 -12 -11 -12 -11 -13 -12 -13 -12 -12 -12 -12 -12 -12 -11 -11 -12 -11 -12 -11 -11 -11 -11 -11 -11 -11 -11 -11 -11 -11 -11
-12 -12 -12 -13 -13 -13 -14 -13 -14 -13 -13 -13 -11 -12 -12 -12 -11 -12 -12 -12 -12 -12 -12 -13 -12 -12 -12 -12 -12 -12 -12 -12 -11 -11 -11 -11 -11 -11 -11 -11 -11 -11 -11
-13 -12 -12 -13 -13 -14 -13 -13 -13 -12 -12 -12 -12 -12 -11 -12 -12 -11 -12 -13 -13 -13 -12 -13 -12 -12 -12 -12 -11 -12 -12 -12 -11 -11 -11 -11 -11 -11 -10 -11 -11 -11 -12
-12 -13 -12 -12 -12 -12 -13 -13 -12 -12 -12 -12 -12 -12 -12 -11 -12 -12 -13 -12 -12 -12 -12 -12 -12 -12 -12 -12 -12 -12 -12 -12 -12 -11 -11 -11 -11 -11 -11 -11 -11 -11 -12
-11 -12 -12 -12 -12 -12 -12 -12 -12 -12 -12 -11 -11 -11 -10 -11 -11 -12 -13 -13 -12 -12 -12 -12 -12 -11 -11 -12 -12 -12 -12 -12 -12 -11 -12 -12 -11 -11 -11 -11 -12 -12 -13
-11 -12 -12 -12 -12 -11 -11 -11 -12 -12 -11 -11 -10 -9 -11 -11 -12 -13 -12 -13 -12 -13 -13 -12 -12 -12 -12 -12 -11 -12 -12 -11 -12 -12 -12 -12 -12 -12 -12 -12 -12 -13 -13
-11 -11 -11 -11 -11 -11 -11 -11 -11 -11 -11 -10 -10 -10 -11 -11 -11 -13 -12 -12 -12 -12 -12 -13 -12 -12 -12 -11 -11 -12 -12 -12 -12 -12 -12 -12 -12 -12 -12 -12 -13 -14 -14
-12 -11 -11 -11 -10 -11 -11 -11 -11 -11 -10 -10 -11 -11 -11 -11 -11 -12 -12 -12 -12 -12 -12 -12 -12 -12 -12 -12 -12 -12 -12 -12 -12 -13 -13 -12 -12 -12 -12 -12 -13 -14 -14
-12 -11 -11 -10 -10 -10 -11 -10 -10 -11 -12 -12 -11 -11 -11 -11 -12 -13 -12 -12 -12 -12 -12 -12 -12 -11 -12 -12 -12 -12 -12 -12 -12 -13 -13 -13 -13 -13 -13 -13 -14 -15 -15
-12 -12 -11 -10 -10 -10 -10 -10 -10 -11 -12 -11 -11 -11 -11 -11 -12 -13 -12 -11 -12 -12 -12 -12 -12 -12 -12 -12 -12 -12 -12 -12 -12 -13 -13 -13 -13 -13 -13 -14 -15 -15 -15
-12 -12 -11 -11 -11 -10 -11 -11 -10 -10 -11 -12 -11 -11 -11 -11 -11 -12 -11 -12 -11 -12 -12 -13 -12 -13 -12 -12 -12 -12 -12 -12 -12 -13 -13 -13 -13 -13 -14 -15 -15 -15 -15
-12 -12 -12 -11 -11 -11 -11 -11 -11 -10 -10 -10 -11 -11 -11 -11 -13 -12 -11 -11 -11 -11 -12 -12 -12 -12 -13 -12 -12 -12 -12 -12 -13 -13 -13 -13 -13 -13 -14 -14 -15 -15 -16
-13 -12 -13 -12 -11 -11 -11 -11 -11 -11 -10 -10 -12 -11 -11 -12 -12 -12 -12 -12 -12 -12 -12 -12 -12 -12 -12 -12 -12 -12 -12 -12 -13 -13 -13 -13 -13 -13 -14 -14 -15 -15 -16
-13 -13 -13 -13 -12 -12 -11 -11 -11 -11 -12 -11 -11 -11 -11 -11 -11 -12 -12 -12 -12 -12 -12 -12 -12 -12 -12 -12 -12 -13 -12 -14 -13 -13 -13 -13 -14 -14 -14 -15 -15 -15 -16
-13 -13 -13 -13 -13 -12 -11 -11 -12 -11 -11 -11 -11 -11 -11 -12 -12 -12 -12 -12 -12 -12 -12 -12 -12 -12 -12 -13 -13 -13 -13 -14 -14 -14 -13 -13 -14 -14 -14 -15 -15 -15 -16
-13 -13 -13 -13 -13 -13 -12 -12 -12 -12 -12 -11 -11 -12 -12 -12 -12 -12 -12 -12 -12 -12 -12 -12 -12 -13 -13 -13 -13 -14 -13 -14 -14 -14 -14 -14 -14 -14 -14 -15 -15 -15 -15
-13 -13 -13 -13 -13 -13 -13 -12 -13 -13 -12 -11 -11 -12 -12 -12 -12 -12 -12 -12 -12 -12 -13 -13 -13 -13 -13 -13 -14 -14 -14 -14 -14 -14 -14 -14 -14 -15 -15 -15 -15 -15 -15
-13 -13 -13 -13 -13 -13 -13 -13 -12 -12 -12 -12 -12 -12 -12 -12 -12 -12 -12 -12 -12 -12 -13 -13 -13 -13 -13 -14 -14 -14 -14 -14 -14 -14 -15 -14 -14 -15 -15 -15 -16 -16 -16
Height
5812 5813 5811 5809 5807 5806 5804 5804 5804 5804 5805 5807 5810 5812 5814 5818 5820 5822 5825 5827 5829 5833 5834 5836 5838 5840 5842 5842 5844 5846 5846 5847 5849 5850 5851 5852 5852 5854 5854 5854 5854 5855 5856
5806 5805 5804 5803 5802 5802 5800 5799 5802 5797 5799 5803 5805 5806 5808 5811 5814 5816 5819 5822 5826 5829 5830 5833 5834 5837 5839 5841 5841 5843 5845 5846 5847 5848 5849 5849 5850 5852 5852 5853 5852 5853 5854
5801 5800 5798 5798 5797 5796 5796 5795 5795 5797 5797 5797 5798 5801 5804 5807 5808 5811 5814 5818 5821 5825 5828 5830 5831 5832 5835 5837 5840 5842 5843 5844 5845 5846 5848 5848 5850 5850 5851 5851 5850 5852 5853
5797 5795 5793 5792 5791 5790 5791 5792 5792 5791 5791 5792 5793 5794 5797 5800 5804 5807 5811 5814 5817 5820 5823 5826 5828 5830 5832 5835 5838 5840 5841 5842 5843 5845 5846 5847 5848 5848 5850 5850 5848 5849 5850
5792 5791 5788 5786 5785 5785 5785 5786 5786 5788 5787 5788 5789 5789 5792 5796 5801 5806 5809 5811 5814 5816 5819 5822 5826 5829 5829 5833 5837 5838 5839 5840 5841 5843 5844 5844 5845 5846 5848 5846 5847 5848 5849
5785 5785 5782 5779 5779 5779 5779 5779 5780 5781 5781 5782 5783 5783 5787 5789 5795 5800 5805 5807 5811 5814 5816 5819 5822 5825 5829 5833 5836 5836 5837 5839 5839 5840 5841 5842 5844 5844 5846 5844 5846 5846 5847
5778 5777 5776 5772 5772 5773 5773 5773 5773 5774 5774 5774 5774 5770 5777 5783 5788 5793 5799 5802 5808 5811 5813 5815 5818 5821 5825 5828 5833 5832 5834 5836 5836 5837 5839 5840 5841 5842 5842 5842 5844 5844 5843
5773 5771 5768 5766 5765 5766 5765 5765 5765 5766 5766 5765 5766 5772 5770 5779 5782 5790 5795 5798 5801 5809 5811 5812 5814 5817 5821 5824 5827 5829 5832 5833 5835 5836 5836 5837 5838 5838 5839 5840 5840 5840 5840
5768 5764 5762 5759 5759 5758 5758 5757 5757 5758 5756 5760 5760 5766 5766 5778 5780 5784 5789 5794 5797 5802 5807 5808 5810 5814 5817 5820 5824 5828 5830 5832 5833 5833 5833 5834 5835 5835 5836 5837 5837 5837 5837
5764 5760 5756 5754 5754 5753 5750 5747 5748 5750 5750 5752 5755 5759 5763 5769 5768 5778 5785 5792 5792 5796 5801 5804 5807 5811 5812 5817 5822 5827 5828 5829 5828 5830 5830 5831 5832 5833 5834 5833 5833 5833 5834
5760 5756 5754 5750 5748 5745 5741 5740 5740 5743 5744 5746 5750 5749 5753 5757 5769 5774 5780 5786 5789 5791 5797 5801 5803 5806 5811 5816 5820 5824 5826 5826 5827 5827 5828 5829 5830 5830 5830 5829 5830 5830 5830
5760 5753 5750 5748 5743 5741 5738 5736 5734 5733 5736 5737 5740 5746 5744 5754 5761 5767 5777 5783 5786 5788 5793 5797 5800 5806 5808 5813 5817 5822 5820 5823 5824 5825 5826 5827 5827 5827 5827 5826 5827 5827 5827
5756 5750 5747 5744 5740 5738 5735 5734 5732 5729 5730 5728 5731 5737 5743 5752 5758 5766 5774 5777 5783 5787 5791 5794 5801 5803 5806 5810 5814 5819 5818 5820 5821 5822 5823 5823 5824 5824 5823 5822 5822 5824 5824
5750 5745 5742 5740 5737 5734 5732 5731 5727 5726 5722 5721 5725 5731 5743 5747 5754 5762 5769 5773 5781 5787 5791 5795 5798 5801 5804 5807 5811 5816 5814 5817 5819 5821 5821 5821 5819 5819 5820 5820 5819 5819 5820
5746 5742 5736 5733 5733 5729 5726 5724 5724 5722 5715 5714 5718 5726 5737 5747 5754 5758 5764 5769 5776 5782 5787 5792 5795 5797 5801 5802 5808 5814 5809 5814 5816 5817 5817 5816 5815 5816 5816 5815 5815 5815 5815
5739 5737 5732 5727 5726 5726 5724 5721 5718 5716 5713 5717 5721 5728 5738 5745 5752 5756 5759 5766 5773 5778 5783 5787 5790 5794 5797 5799 5804 5808 5807 5810 5812 5813 5813 5812 5811 5812 5812 5811 5810 5811 5810
5737 5734 5730 5725 5721 5721 5721 5719 5718 5718 5717 5722 5727 5730 5737 5742 5748 5752 5755 5765 5767 5774 5781 5783 5787 5790 5793 5795 5799 5804 5804 5806 5808 5807 5809 5807 5807 5807 5808 5806 5806 5806 5805
5735 5730 5726 5723 5720 5718 5718 5718 5718 5720 5718 5720 5722 5730 5729 5740 5745 5748 5753 5761 5766 5772 5778 5780 5783 5787 5789 5791 5793 5798 5802 5800 5802 5802 5803 5803 5802 5802 5802 5800 5800 5800 5801
5731 5728 5723 5721 5719 5717 5718 5718 5717 5718 5720 5720 5724 5728 5729 5740 5746 5745 5751 5758 5764 5770 5774 5778 5780 5783 5785 5787 5789 5791 5795 5798 5796 5796 5798 5797 5796 5796 5796 5794 5795 5795 5796
5729 5726 5721 5719 5717 5717 5716 5717 5717 5717 5719 5719 5723 5728 5731 5737 5740 5744 5750 5757 5763 5767 5770 5774 5777 5779 5780 5782 5785 5786 5789 5791 5792 5791 5790 5791 5791 5791 5791 5790 5791 5792 5792
5726 5723 5719 5717 5715 5714 5714 5714 5714 5713 5715 5719 5720 5725 5729 5732 5736 5741 5748 5753 5758 5762 5765 5767 5771 5772 5776 5777 5777 5780 5782 5783 5784 5786 5786 5783 5784 5786 5787 5786 5787 5787 5788
5724 5721 5718 5715 5712 5712 5711 5711 5712 5712 5713 5714 5716 5719 5725 5728 5733 5738 5745 5750 5753 5758 5760 5764 5765 5767 5769 5769 5770 5774 5775 5776 5776 5778 5779 5781 5781 5781 5782 5783 5782 5782 5781
5721 5719 5716 5713 5710 5709 5709 5708 5709 5710 5710 5710 5710 5714 5717 5723 5730 5736 5741 5745 5748 5751 5754 5756 5758 5760 5763 5762 5764 5765 5766 5769 5769 5771 5774 5774 5776 5777 5777 5778 5779 5778 5776
5718 5716 5714 5712 5710 5707 5706 5706 5707 5708 5710 5708 5709 5710 5714 5719 5726 5732 5736 5740 5743 5745 5747 5749 5750 5753 5755 5755 5756 5757 5760 5762 5764 5767 5768 5768 5770 5771 5770 5770 5770 5771 5770
5714 5714 5712 5710 5708 5706 5702 5702 5703 5706 5708 5707 5709 5711 5714 5718 5722 5726 5730 5735 5738 5741 5744 5744 5745 5748 5748 5749 5750 5753 5755 5756 5758 5760 5762 5762 5764 5764 5763 5762 5762 5762 5762
5710 5710 5709 5708 5706 5705 5704 5702 5702 5704 5707 5708 5708 5711 5713 5716 5719 5722 5724 5728 5731 5734 5736 5738 5740 5741 5743 5744 5745 5748 5751 5752 5753 5756 5757 5758 5758 5758 5758 5758 5758 5755 5752
Wind_Speed
36 31 30 32 34 27 29 29 34 38 38 37 34 37 35 33 32 29 29 28 27 26 22 21 21 22 24 25 25 23 20 19 17 15 13 12 11 10 8 7 6 6 7
31 30 28 28 26 25 23 25 21 14 33 32 35 35 36 35 33 32 29 26 27 28 28 25 21 21 25 26 25 22 20 16 15 13 13 11 10 9 9 7 6 8 10
28 27 30 28 27 27 24 21 21 24 30 32 33 34 33 34 34 33 29 26 26 30 29 27 25 25 25 26 23 20 19 14 12 10 9 9 11 10 8 9 6 9 11
25 26 26 27 28 27 25 22 22 21 24 29 33 33 31 33 33 30 28 27 28 29 31 30 29 29 26 24 22 20 16 13 11 9 12 13 11 8 10 10 8 9 9
24 24 25 26 27 24 23 25 24 24 25 28 33 35 29 28 29 30 27 28 25 28 27 27 28 31 26 24 21 19 12 12 12 15 16 17 15 13 13 10 8 10 12
29 26 25 27 27 27 28 27 26 26 29 32 34 42 33 25 34 28 29 31 28 28 27 26 29 28 26 22 21 16 13 12 17 16 16 14 14 11 11 10 12 12 13
30 26 22 24 25 26 26 23 24 28 31 33 33 34 33 33 26 29 33 30 28 29 29 31 35 31 25 26 21 18 16 21 18 20 16 13 13 12 13 13 13 11 11
30 25 25 25 26 23 23 25 28 30 35 40 44 35 42 34 32 28 29 28 26 28 32 33 31 31 32 26 20 19 19 19 19 14 13 14 14 12 12 12 12 10 10
28 25 24 24 24 22 24 29 32 32 36 36 34 36 37 28 28 30 28 27 28 25 29 36 41 34 28 23 22 20 17 20 17 13 12 13 13 12 12 12 9 10 11
24 22 19 16 16 23 29 29 29 31 33 35 29 31 43 45 33 36 26 37 24 26 31 37 37 29 20 20 21 17 18 16 16 12 10 9 8 7 10 11 12 13 13
21 23 15 17 25 26 17 17 20 22 25 31 32 34 40 40 35 33 37 33 27 29 32 36 28 23 23 20 18 14 13 15 13 11 9 9 5 6 9 8 12 12 11
17 22 20 17 18 21 18 18 16 22 25 30 30 33 36 44 42 41 38 35 22 30 38 28 23 24 22 20 17 12 14 15 15 16 12 9 9 12 12 12 13 11 10
17 19 20 17 16 17 20 20 22 16 22 29 32 30 43 53 45 35 33 23 16 29 29 23 25 23 23 20 15 12 15 15 16 15 13 8 7 12 13 12 12 13 12
21 23 22 19 16 13 15 16 21 19 22 26 30 36 47 45 42 33 31 25 22 20 28 30 28 28 23 20 16 12 19 16 17 11 9 10 11 12 12 12 12 13 14
20 23 24 23 15 12 12 14 17 19 19 25 27 45 52 51 40 29 32 27 27 29 33 34 31 27 25 22 17 14 19 16 15 13 15 12 12 13 13 12 13 15 15
22 25 24 24 16 10 8 12 15 22 9 27 40 44 56 42 32 29 26 29 28 27 36 39 35 29 27 25 19 16 18 18 18 19 14 13 14 16 16 14 14 16 17
23 24 25 20 17 11 6 9 11 20 12 28 33 44 54 41 25 31 29 30 28 27 33 36 34 32 28 25 21 18 19 22 20 20 21 16 17 18 17 13 15 17 15
23 23 23 18 16 11 5 5 6 10 11 18 27 49 48 45 28 32 29 28 31 31 37 38 34 33 30 26 24 22 21 24 24 22 19 21 20 20 18 13 13 14 16
24 21 22 16 12 8 5 5 4 6 11 13 16 44 44 44 36 31 28 31 32 32 34 44 36 34 31 31 28 26 25 26 26 25 23 23 21 20 16 13 14 15 15
24 18 20 16 13 7 4 5 4 4 9 12 14 33 47 43 35 29 27 26 26 25 30 35 36 33 34 32 33 32 32 31 30 27 24 20 18 17 16 13 13 14 14
23 18 18 15 11 10 5 6 4 5 5 11 20 24 45 46 31 27 25 27 19 22 27 31 34 36 37 38 39 36 35 40 36 29 19 18 17 15 13 12 14 14 16
22 16 16 15 9 8 7 5 2 4 5 13 22 30 42 47 42 40 33 29 29 28 26 29 34 35 30 32 33 33 35 30 27 25 17 17 15 14 14 13 16 17 18
19 15 13 14 10 7 5 4 4 4 7 9 20 23 32 44 40 44 39 33 32 31 24 25 28 31 26 20 18 25 27 21 21 15 16 18 13 12 13 13 15 19 21
18 13 11 11 8 9 1 4 5 3 6 3 10 16 25 35 42 38 33 28 34 34 26 27 26 22 31 26 18 18 20 19 15 18 18 15 13 14 14 16 16 16 20
16 12 9 9 6 6 6 1 4 7 3 4 3 11 25 22 28 30 40 35 33 35 28 22 24 25 23 18 15 14 17 18 19 19 17 16 14 16 18 19 22 26 27
14 11 9 7 7 5 6 5 5 6 9 9 7 1 1 13 29 31 32 32 36 31 34 34 24 21 18 17 16 18 19 19 18 17 17 18 18 20 20 23 25 32 32
Wind_Direction
290 292 290 286 284 285 279 271 260 256 251 247 251 249 249 246 243 238 239 238 234 235 226 224 231 233 233 225 223 217 214 214 212 210 210 214 220 229 225 228 229 255 262
297 293 289 285 280 278 275 270 267 246 256 245 246 247 248 246 240 234 234 238 239 232 228 229 226 231 234 228 220 216 212 205 205 206 211 212 214 224 219 221 239 254 269
287 290 291 287 278 276 271 265 261 259 254 252 252 249 249 247 241 233 230 233 229 229 231 228 227 227 229 220 216 212 205 199 194 199 218 224 231 228 238 246 259 276 282
287 286 285 285 274 268 268 265 254 254 259 257 253 249 243 246 243 234 231 228 229 229 234 232 228 225 224 214 212 206 187 197 209 232 235 242 235 242 256 254 260 268 285
302 292 284 286 277 265 267 263 261 256 255 255 255 248 245 245 241 242 232 225 227 225 224 221 226 231 232 211 208 187 202 222 227 232 236 236 235 233 239 255 273 279 277
304 300 289 283 278 267 267 267 266 260 259 250 240 246 228 229 224 227 238 229 231 227 220 217 219 217 205 201 205 201 213 247 243 229 228 228 230 239 253 268 262 269 280
305 300 287 286 276 271 271 266 267 262 261 255 249 216 232 219 213 219 225 226 229 229 217 219 219 211 195 198 205 205 241 233 232 238 232 233 244 251 259 261 269 281 297
304 302 296 283 280 276 272 273 272 271 260 255 238 225 227 209 226 210 216 220 217 233 225 224 214 196 204 206 216 229 226 235 234 231 242 240 247 252 259 275 277 297 305
306 306 301 290 282 277 271 268 267 264 260 256 253 237 230 201 204 198 214 223 219 225 235 232 215 204 203 202 212 226 225 232 232 236 250 252 259 259 260 270 284 300 286
309 306 315 315 312 310 288 272 268 260 259 256 252 243 223 235 215 218 216 231 220 226 239 228 218 198 198 207 213 216 225 233 239 243 258 243 255 282 275 277 280 280 273
309 304 309 306 321 320 305 288 273 260 252 251 243 233 236 225 201 206 215 225 220 215 224 224 194 196 203 207 221 226 232 246 254 253 247 241 259 292 293 270 260 266 262
312 304 306 305 307 319 320 329 282 267 260 255 243 231 238 202 192 202 209 218 219 214 208 201 198 204 207 212 223 226 242 256 259 253 260 273 284 282 277 275 270 269 265
329 322 309 304 302 308 314 310 310 273 267 254 244 210 200 202 197 199 204 199 214 207 201 200 209 216 220 222 229 225 244 251 261 269 267 276 293 297 281 271 267 271 260
330 325 323 311 295 302 306 313 316 288 270 246 218 188 193 184 197 195 205 200 208 223 206 211 214 220 225 229 232 230 251 254 261 259 261 283 294 297 289 289 274 265 261
323 326 328 319 294 297 309 319 323 314 274 224 211 186 194 192 197 204 207 206 213 214 214 217 221 224 228 237 236 226 249 253 259 264 275 288 308 303 296 293 275 263 263
326 324 330 321 305 292 305 325 328 326 250 187 187 182 176 192 203 208 203 210 214 214 217 220 229 225 230 239 242 237 252 260 250 269 284 291 302 300 295 281 272 263 260
322 318 327 320 307 293 302 340 340 332 187 194 199 180 195 191 203 208 195 207 211 211 222 219 226 227 232 238 241 244 254 265 260 270 286 292 296 292 283 272 264 258 263
321 325 328 317 304 285 305 318 319 334 314 184 195 197 198 190 213 204 195 207 214 216 220 223 229 231 236 239 245 251 254 264 268 273 288 292 292 286 276 268 267 261 267
321 327 327 320 315 283 277 284 292 304 323 296 203 199 190 200 213 204 197 208 219 223 227 229 231 238 242 245 253 257 259 260 267 272 280 290 285 271 270 259 258 260 257
315 327 328 322 315 275 264 263 259 265 301 288 221 191 194 205 201 204 202 217 229 235 237 234 238 243 247 252 255 263 266 269 265 269 278 284 270 266 257 253 252 247 254
313 323 330 316 313 283 235 245 252 273 292 254 225 217 208 203 204 207 215 227 243 239 232 234 236 244 255 259 259 264 270 277 275 268 274 269 265 257 252 250 253 258 260
310 318 327 323 329 289 259 236 259 204 282 253 220 216 208 217 225 226 228 235 245 239 241 246 244 249 261 263 266 267 272 280 266 267 242 234 234 241 250 261 270 271 274
305 306 322 327 344 308 268 255 219 236 304 254 220 210 213 215 216 224 228 239 240 239 248 256 262 258 261 245 255 264 264 261 252 226 233 240 243 244 257 257 262 276 278
298 292 314 324 352 349 283 228 223 203 345 190 200 211 219 217 214 211 234 237 232 236 257 265 249 244 254 251 240 253 251 230 213 223 226 231 242 250 266 273 277 283 284
292 282 304 316 342 31 17 111 184 220 216 342 247 208 198 218 219 232 237 234 237 226 242 256 254 257 241 229 225 224 214 212 224 227 235 236 249 267 273 283 293 293 288
289 276 281 308 336 25 69 92 170 201 209 193 149 139 166 220 225 231 232 231 240 239 242 249 242 231 223 222 204 206 222 225 223 231 238 250 255 267 278 280 281 292 292